Wetbulb
44.28 44.83 44.77 44.55 45.15 45.35 44.85 45.33 45.75 46.07 46.61 46.73 46.97 46.93 46.98 47.79 47.82 48.15 48.43 48.32 47.79 47.57 48.15 48.37 47.92 48.46 47.22 47.65 47.98 48.01 47.90 48.30 48.16 50.89 51.02 50.16 49.38 48.68 49.14 49.87 50.66 49.91 50.60
44.08 44.60 44.42 44.55 44.83 44.43 44.51 45.26 45.72 45.61 46.50 46.59 47.13 47.14 47.64 47.85 46.72 46.89 48.08 47.42 47.11 46.57 46.93 47.18 47.20 47.62 45.83 47.09 46.97 46.93 46.62 46.87 48.34 47.29 48.47 48.32 47.94 48.57 48.48 48.01 48.77 49.48 48.71
44.16 44.47 44.21 44.26 44.31 44.52 44.83 45.38 45.90 46.11 46.68 46.75 47.03 47.48 47.80 47.08 45.96 45.99 48.17 47.42 47.37 47.27 47.36 47.25 46.63 46.45 45.76 46.11 47.00 45.80 47.00 47.09 48.47 48.54 47.00 48.77 48.16 48.26 48.07 47.40 46.66 46.16 47.75
44.11 44.10 43.47 44.19 44.56 44.88 45.36 45.90 46.18 46.52 46.50 46.79 47.12 47.48 46.91 46.27 45.83 45.97 47.28 47.46 47.52 47.82 46.10 44.78 44.54 45.18 45.62 45.61 46.36 45.80 47.47 46.82 47.89 48.19 46.84 46.66 47.11 48.21 47.83 44.71 42.59 44.03 43.39
43.69 43.53 44.07 45.03 45.67 45.94 45.95 46.24 46.41 46.57 46.61 46.65 47.27 46.29 45.15 45.47 45.45 46.15 46.26 47.16 46.32 45.63 43.61 43.09 43.83 46.99 47.42 46.93 46.15 46.54 47.25 46.26 47.05 47.00 46.26 46.40 46.19 46.71 45.59 44.88 42.41 43.16 42.87
43.09 43.72 45.19 45.39 45.78 45.68 45.88 46.08 46.15 46.04 46.09 46.61 45.21 44.62 43.79 43.77 44.98 46.06 47.85 46.57 47.27 42.97 42.15 42.75 43.24 44.94 45.67 45.84 46.77 48.49 48.83 47.15 45.77 47.52 46.62 45.74 46.42 46.49 45.57 44.25 43.26 43.53 40.76
43.48 44.78 45.57 45.67 45.67 45.53 44.91 44.97 45.18 44.83 45.28 47.36 45.76 45.05 43.41 43.87 44.65 43.97 46.84 47.04 45.91 43.17 43.08 42.80 43.03 44.15 44.99 44.50 45.26 47.48 48.15 48.52 48.59 47.87 47.13 47.09 46.19 47.51 46.48 44.87 44.96 42.54 40.75
43.96 44.79 45.41 45.59 45.17 44.81 43.48 43.15 43.72 43.89 44.31 45.47 46.86 46.38 45.34 44.99 44.42 43.48 44.77 48.74 45.51 44.32 43.64 43.08 43.72 44.49 45.49 45.35 45.67 47.02 47.97 48.74 48.30 49.12 48.97 48.23 48.21 48.95 48.50 48.17 44.31 42.80 42.80
44.32 45.34 45.46 45.62 44.05 42.55 42.08 42.08 42.68 42.40 42.10 42.93 46.39 46.30 45.35 44.36 43.67 42.84 44.26 47.11 45.87 45.22 43.90 43.72 44.89 44.11 43.81 43.17 46.21 46.39 45.70 45.72 47.38 46.66 45.72 45.07 44.76 46.33 47.22 45.69 43.51 43.98 42.63
44.57 45.23 45.52 45.60 42.59 41.28 41.10 41.04 41.20 41.64 42.56 44.00 43.88 43.89 44.33 43.55 42.93 42.13 43.38 47.47 44.60 43.83 43.36 43.71 44.27 43.58 41.76 42.17 47.36 46.66 44.31 44.47 45.27 45.04 45.45 45.22 45.72 45.78 46.39 47.45 47.59 45.33 43.07
45.55 45.09 44.97 43.52 41.84 41.06 40.67 40.79 40.78 41.22 41.79 42.21 43.12 44.02 44.32 44.39 43.30 41.97 41.99 44.25 43.52 42.49 42.10 43.05 43.98 42.46 41.44 42.40 43.82 45.30 44.12 45.24 44.89 44.29 43.87 43.86 43.96 44.21 44.51 44.79 44.66 45.88 44.57
44.53 44.94 44.17 43.41 42.70 41.80 41.58 41.49 41.12 41.10 42.13 42.52 42.47 42.71 43.98 44.54 43.43 42.49 41.61 42.28 43.76 42.60 42.55 43.29 44.20 41.87 41.12 42.18 44.04 41.95 42.69 44.50 44.55 43.54 43.01 42.49 42.58 42.78 42.70 43.63 43.88 45.31 44.75
44.86 44.22 43.45 43.15 43.24 42.72 42.41 42.16 41.77 41.90 41.19 41.23 41.24 40.88 41.87 43.31 42.77 42.48 41.89 42.06 43.11 43.59 44.46 44.36 43.02 42.33 42.94 43.99 42.56 42.60 43.67 44.58 43.72 43.38 42.26 42.27 42.49 43.13 43.97 43.47 44.52 44.04 43.23
43.68 43.11 43.13 42.82 42.79 43.35 43.51 43.11 41.96 40.65 40.11 40.41 40.19 40.06 41.06 41.73 41.80 42.04 43.19 43.53 43.39 44.12 45.16 45.87 44.77 44.32 44.06 44.82 44.97 44.49 44.67 44.43 44.15 43.11 41.89 42.62 43.46 43.22 42.86 43.49 43.16 43.49 42.36
43.81 43.80 43.11 43.30 43.31 43.73 43.55 42.48 42.13 42.34 40.61 39.70 40.01 41.02 40.46 39.85 40.42 40.08 40.51 42.40 43.07 43.12 44.99 45.64 44.91 44.80 44.44 45.04 44.94 44.96 45.36 44.86 43.36 43.77 43.04 42.68 42.76 42.88 42.80 44.66 43.78 43.45 43.11
42.91 42.80 43.06 43.25 43.33 43.23 42.59 42.39 41.04 40.81 40.23 39.31 38.43 39.52 42.74 39.58 39.24 39.13 39.42 39.60 39.81 40.76 44.74 44.49 44.00 44.51 43.90 43.84 43.41 43.48 43.94 43.79 43.67 43.42 43.19 42.86 42.06 42.14 43.13 43.46 43.86 43.44 42.41
42.36 42.96 43.04 42.80 42.42 41.99 42.42 42.20 40.98 42.73 41.86 40.58 38.96 38.61 38.43 38.81 39.19 39.42 39.80 40.16 39.72 43.00 44.92 44.15 43.80 43.80 43.62 43.25 43.23 43.23 42.72 43.72 44.52 44.27 44.93 43.29 43.16 42.63 42.11 41.67 42.48 42.41 41.58
43.69 42.37 43.19 43.29 43.76 43.75 43.54 43.26 42.75 42.07 41.89 43.10 42.17 40.87 39.19 39.36 39.39 39.72 40.09 42.98 44.83 44.68 44.87 44.20 44.02 44.36 43.93 43.57 43.58 43.37 43.62 43.93 44.45 44.58 43.54 42.93 42.57 42.46 42.34 42.58 43.08 43.26 43.14
45.38 45.17 45.65 45.46 45.26 44.65 44.31 43.54 43.31 43.06 42.88 42.94 44.10 43.65 43.45 40.45 40.57 40.91 41.45 45.10 44.49 44.49 45.05 45.02 45.21 44.85 44.82 45.17 44.65 45.37 45.52 44.42 44.53 43.83 43.13 43.17 43.35 43.53 43.16 43.81 44.25 38.77 40.38
45.79 42.86 43.80 45.98 45.43 44.93 44.55 43.78 43.53 43.13 43.07 42.98 42.62 42.25 43.85 44.24 44.25 44.42 45.25 45.38 45.56 45.67 46.25 46.21 46.05 46.05 45.98 46.09 46.22 45.90 45.56 44.99 44.94 44.48 44.23 44.40 44.60 44.66 45.05 44.99 45.45 45.22 45.29
46.47 47.09 42.93 45.95 45.58 45.13 44.75 44.43 44.12 43.78 43.73 43.46 42.97 40.16 35.04 44.50 44.36 44.69 44.78 45.35 45.09 46.48 46.93 47.10 47.00 47.37 47.68 47.13 46.83 46.39 46.12 46.02 45.63 45.53 45.21 44.45 44.55 44.67 44.93 44.79 44.37 44.89 46.04
45.10 45.36 46.54 45.98 45.77 45.55 45.41 45.82 45.41 45.11 44.26 43.81 43.85 43.61 36.21 44.30 43.97 43.85 44.03 44.31 45.15 46.53 46.86 47.00 47.00 47.15 47.30 46.95 46.79 46.65 46.38 46.35 46.83 46.90 46.97 46.50 46.44 46.20 45.93 46.37 47.09 46.82 46.70
44.86 44.81 45.36 46.04 46.59 44.22 45.52 45.88 45.00 44.89 44.61 44.32 43.74 44.18 44.24 44.55 44.01 43.59 43.33 43.44 42.90 43.33 44.37 44.94 45.69 45.80 46.98 48.09 48.53 48.18 48.16 48.09 47.86 47.70 47.85 48.60 47.59 46.15 46.04 44.87 45.44 45.87 45.46
44.46 44.41 44.13 43.98 44.33 45.31 45.54 46.40 46.57 42.72 45.42 45.23 45.10 44.69 44.37 43.76 43.35 42.90 42.21 41.92 41.83 41.90 42.05 42.49 42.38 42.80 43.11 43.88 44.47 45.36 45.29 45.63 46.12 47.04 47.30 48.28 45.96 44.30 44.75 44.41 44.60 44.32 44.14
44.27 43.86 43.96 43.32 43.91 44.33 45.59 44.93 44.86 45.82 45.54 44.95 44.48 43.85 42.65 41.83 40.16 40.68 40.48 40.70 40.23 40.08 39.57 40.16 40.35 41.16 41.41 41.75 42.06 42.05 35.19 33.15 43.32 38.70 47.49 45.76 44.41 44.02 43.05 43.12 43.41 43.67 43.51
43.73 43.67 43.83 43.57 43.62 44.04 44.26 44.73 44.63 44.71 44.29 43.05 41.68 40.74 40.57 39.55 38.88 39.13 38.64 38.74 38.81 38.93 39.08 38.88 39.07 39.22 40.22 40.25 38.55 34.02 33.38 33.66 39.07 33.96 44.80 44.86 43.88 43.30 43.04 42.43 41.86 41.43 41.61
MSLP
1023.44 1023.04 1022.65 1022.17 1021.80 1021.50 1021.17 1020.73 1020.30 1019.78 1019.41 1019.15 1018.86 1018.65 1018.45 1018.09 1017.74 1017.47 1017.17 1016.92 1016.59 1016.26 1015.99 1015.55 1015.20 1014.84 1014.48 1014.08 1013.53 1013.12 1012.44 1011.89 1011.34 1010.75 1010.76 1011.15 1011.27 1011.41 1011.57 1011.43 1011.64 1011.43 1011.41
1023.46 1023.08 1022.62 1022.08 1021.63 1021.25 1020.86 1020.39 1019.91 1019.49 1019.06 1018.86 1018.57 1018.39 1018.16 1017.94 1017.62 1017.48 1017.23 1017.01 1016.73 1016.42 1016.14 1015.79 1015.46 1015.11 1014.61 1014.17 1013.66 1013.12 1012.55 1011.93 1011.64 1011.24 1011.40 1011.52 1011.98 1012.17 1011.92 1012.19 1012.29 1012.32 1012.25
1023.39 1022.93 1022.37 1021.83 1021.39 1020.97 1020.57 1020.01 1019.53 1019.22 1018.90 1018.58 1018.36 1018.14 1018.01 1017.86 1017.60 1017.46 1017.21 1016.98 1016.74 1016.54 1016.34 1016.00 1015.65 1015.23 1014.74 1014.26 1013.70 1013.30 1012.70 1012.03 1011.54 1011.37 1011.62 1011.84 1012.43 1012.67 1012.83 1012.74 1013.00 1012.86 1012.82
1023.12 1022.61 1022.18 1021.68 1021.22 1020.82 1020.27 1019.80 1019.44 1019.09 1018.75 1018.45 1018.22 1018.15 1018.02 1017.83 1017.63 1017.48 1017.25 1016.99 1016.73 1016.58 1016.55 1016.32 1015.92 1015.45 1014.86 1014.38 1013.85 1013.37 1012.85 1012.39 1011.84 1011.74 1012.10 1012.24 1012.71 1013.08 1013.13 1013.41 1013.71 1013.95 1013.89
1022.96 1022.56 1022.01 1021.51 1021.11 1020.61 1020.09 1019.71 1019.32 1018.99 1018.72 1018.48 1018.38 1018.29 1018.13 1017.89 1017.64 1017.36 1017.07 1016.88 1016.72 1016.63 1016.61 1016.38 1016.01 1015.40 1014.88 1014.46 1013.98 1013.51 1013.04 1012.68 1012.18 1012.07 1012.35 1012.60 1013.00 1013.25 1013.47 1013.93 1014.36 1014.60 1014.69
1022.83 1022.26 1021.76 1021.38 1020.91 1020.56 1020.16 1019.74 1019.37 1019.04 1018.82 1018.76 1018.60 1018.41 1018.19 1017.96 1017.63 1017.14 1016.77 1016.66 1016.59 1016.81 1016.69 1016.37 1016.01 1015.40 1014.81 1014.33 1014.00 1013.56 1013.16 1012.81 1012.42 1012.25 1012.44 1012.68 1013.12 1013.48 1013.84 1014.19 1014.42 1014.22 1014.72
1022.71 1022.14 1021.71 1021.23 1020.82 1020.52 1020.29 1019.98 1019.58 1019.30 1019.08 1018.81 1018.59 1018.39 1018.25 1017.99 1017.59 1017.06 1016.75 1016.67 1016.75 1016.85 1016.71 1016.44 1015.95 1015.44 1014.89 1014.26 1013.78 1013.45 1013.16 1012.93 1012.65 1012.56 1012.44 1012.91 1013.32 1013.56 1014.03 1014.41 1014.50 1014.79 1015.15
1022.53 1022.04 1021.56 1021.18 1020.95 1020.58 1020.41 1020.27 1019.88 1019.56 1019.35 1019.08 1018.74 1018.57 1018.36 1018.11 1017.72 1017.38 1016.92 1016.73 1016.77 1016.77 1016.63 1016.40 1016.01 1015.40 1014.92 1014.34 1013.69 1013.23 1013.07 1012.94 1012.76 1012.64 1012.84 1013.22 1013.44 1013.89 1014.18 1014.42 1014.92 1015.31 1015.53
1022.45 1021.96 1021.56 1021.21 1021.06 1021.02 1020.86 1020.55 1020.27 1020.03 1019.65 1019.41 1019.11 1018.74 1018.50 1018.23 1018.00 1017.62 1017.02 1016.77 1016.81 1016.75 1016.59 1016.30 1015.94 1015.50 1014.92 1014.25 1013.63 1013.37 1013.47 1013.55 1013.33 1013.27 1013.53 1013.74 1014.02 1014.22 1014.41 1014.63 1015.13 1015.24 1015.63
1022.25 1021.89 1021.57 1021.39 1021.46 1021.38 1021.26 1020.97 1020.72 1020.43 1020.10 1019.75 1019.31 1019.08 1018.74 1018.51 1018.17 1017.78 1017.34 1017.04 1016.93 1016.87 1016.62 1016.31 1016.02 1015.58 1014.89 1014.23 1013.80 1013.82 1013.95 1014.19 1014.11 1014.13 1014.39 1014.62 1014.72 1014.88 1014.85 1014.88 1015.15 1015.32 1015.56
1022.27 1021.92 1021.77 1021.74 1021.73 1021.70 1021.57 1021.30 1021.07 1020.71 1020.31 1019.75 1019.45 1019.11 1018.83 1018.69 1018.41 1018.02 1017.60 1017.42 1017.38 1017.18 1017.00 1016.58 1016.19 1015.68 1015.18 1014.77 1014.53 1014.51 1014.66 1014.76 1014.89 1014.94 1015.25 1015.45 1015.58 1015.67 1015.73 1015.69 1015.59 1015.49 1015.71
1022.24 1022.05 1022.06 1022.07 1022.00 1021.93 1021.70 1021.47 1021.29 1020.91 1020.55 1019.94 1019.64 1019.29 1019.03 1018.89 1018.69 1018.42 1018.16 1017.94 1017.76 1017.54 1017.23 1016.88 1016.53 1016.10 1015.70 1015.49 1015.42 1015.41 1015.36 1015.32 1015.44 1015.65 1015.94 1016.28 1016.40 1016.44 1016.51 1016.42 1016.30 1016.21 1016.29
1022.43 1022.39 1022.42 1022.40 1022.25 1022.05 1021.81 1021.61 1021.40 1021.06 1020.71 1020.28 1019.97 1019.66 1019.43 1019.28 1019.08 1018.83 1018.56 1018.31 1018.04 1017.75 1017.43 1017.11 1016.83 1016.55 1016.38 1016.31 1016.20 1016.14 1016.07 1016.04 1016.30 1016.49 1016.88 1017.16 1017.34 1017.31 1017.08 1017.10 1017.07 1017.08 1017.06
1022.85 1022.76 1022.73 1022.58 1022.38 1022.16 1022.00 1021.80 1021.61 1021.47 1021.07 1020.71 1020.40 1020.13 1019.97 1019.81 1019.65 1019.34 1019.01 1018.68 1018.35 1018.01 1017.72 1017.51 1017.32 1017.15 1017.00 1016.98 1016.87 1016.95 1017.00 1017.13 1017.19 1017.41 1017.62 1017.74 1017.77 1017.78 1017.82 1017.75 1017.66 1017.79 1017.81
1023.31 1023.12 1022.95 1022.77 1022.60 1022.36 1022.16 1022.07 1021.87 1021.74 1021.56 1021.26 1021.04 1020.74 1020.56 1020.36 1020.31 1019.99 1019.56 1019.15 1018.77 1018.48 1018.13 1017.95 1017.83 1017.75 1017.73 1017.75 1017.86 1017.96 1017.99 1017.96 1017.95 1018.12 1018.23 1018.38 1018.47 1018.41 1018.47 1018.41 1018.41 1018.35 1018.29
1023.61 1023.40 1023.26 1023.06 1022.88 1022.68 1022.40 1022.18 1022.07 1021.82 1021.64 1021.45 1021.23 1021.12 1020.99 1020.85 1020.58 1020.27 1019.92 1019.55 1019.21 1018.92 1018.68 1018.69 1018.69 1018.64 1018.61 1018.69 1018.72 1018.75 1018.78 1018.78 1018.80 1018.81 1018.83 1018.87 1018.96 1019.08 1019.14 1019.06 1018.98 1018.92 1018.87
1024.06 1023.86 1023.62 1023.36 1023.13 1022.92 1022.67 1022.48 1022.27 1022.02 1021.83 1021.71 1021.59 1021.56 1021.41 1021.15 1021.02 1020.73 1020.41 1020.07 1019.82 1019.38 1019.34 1019.40 1019.36 1019.35 1019.39 1019.41 1019.41 1019.42 1019.43 1019.49 1019.40 1019.37 1019.38 1019.69 1019.62 1019.57 1019.55 1019.48 1019.39 1019.28 1019.27
1024.32 1024.18 1023.91 1023.67 1023.42 1023.21 1023.06 1022.87 1022.68 1022.51 1022.35 1022.23 1022.18 1022.06 1021.94 1021.71 1021.46 1021.16 1020.85 1020.44 1020.24 1020.13 1020.05 1020.03 1020.05 1020.16 1020.21 1020.23 1020.19 1020.15 1020.17 1020.24 1020.21 1020.21 1020.22 1020.25 1020.17 1019.99 1019.92 1019.88 1019.74 1019.58 1019.47
1024.47 1024.23 1024.05 1023.91 1023.78 1023.61 1023.45 1023.32 1023.12 1023.02 1022.91 1022.87 1022.76 1022.57 1022.43 1022.12 1021.95 1021.71 1021.40 1021.19 1021.09 1020.97 1020.86 1020.74 1020.76 1020.85 1020.96 1020.90 1020.96 1020.95 1020.95 1020.95 1020.85 1020.76 1020.77 1020.65 1020.53 1020.30 1020.17 1020.04 1019.84 1019.61 1019.44
1024.87 1024.66 1024.41 1024.28 1024.14 1024.03 1023.92 1023.82 1023.68 1023.61 1023.57 1023.55 1023.45 1023.35 1023.10 1022.68 1022.48 1022.31 1022.11 1021.92 1021.72 1021.68 1021.56 1021.46 1021.50 1021.46 1021.42 1021.43 1021.46 1021.48 1021.46 1021.37 1021.25 1021.06 1020.92 1020.74 1020.59 1020.39 1020.05 1019.87 1019.76 1019.60 1019.46
1025.28 1025.06 1024.90 1024.74 1024.72 1024.65 1024.52 1024.41 1024.36 1024.28 1024.21 1024.18 1024.11 1024.09 1023.65 1023.39 1023.30 1023.10 1022.97 1022.69 1022.50 1022.23 1022.07 1021.94 1021.90 1021.87 1021.84 1021.78 1021.66 1021.57 1021.45 1021.35 1021.23 1021.09 1020.93 1020.77 1020.56 1020.30 1020.10 1019.86 1019.72 1019.53 1019.33
1025.72 1025.59 1025.38 1025.31 1025.23 1025.15 1025.12 1025.06 1025.01 1024.97 1024.87 1024.79 1024.70 1024.50 1024.27 1023.97 1023.92 1023.79 1023.65 1023.44 1023.21 1022.94 1022.73 1022.49 1022.30 1022.23 1022.18 1022.02 1021.90 1021.75 1021.60 1021.48 1021.38 1021.27 1021.10 1020.89 1020.59 1020.26 1019.95 1019.57 1019.28 1019.17 1019.20
1026.32 1026.09 1025.93 1025.82 1025.73 1025.71 1025.65 1025.71 1025.59 1025.49 1025.43 1025.43 1025.32 1025.15 1024.90 1024.76 1024.65 1024.48 1024.31 1024.13 1023.91 1023.61 1023.39 1023.12 1022.88 1022.72 1022.60 1022.40 1022.23 1022.01 1021.84 1021.72 1021.60 1021.49 1021.23 1020.91 1020.62 1020.34 1020.08 1019.88 1019.69 1019.62 1019.67
1026.64 1026.48 1026.31 1026.20 1026.19 1026.19 1026.29 1026.27 1026.25 1026.15 1026.02 1025.95 1025.90 1025.80 1025.71 1025.58 1025.41 1025.29 1025.05 1024.82 1024.63 1024.45 1024.23 1024.00 1023.84 1023.57 1023.26 1022.95 1022.67 1022.33 1022.11 1021.93 1021.81 1021.61 1021.46 1021.19 1021.03 1020.84 1020.61 1020.41 1020.25 1020.21 1020.17
1026.93 1026.84 1026.74 1026.83 1026.93 1026.90 1026.81 1026.81 1026.87 1026.78 1026.70 1026.67 1026.62 1026.59 1026.57 1026.41 1026.29 1026.15 1025.93 1025.70 1025.54 1025.30 1025.20 1024.93 1024.68 1024.31 1023.93 1023.59 1023.21 1022.90 1022.80 1022.45 1022.07 1022.05 1021.71 1021.59 1021.44 1021.34 1021.26 1021.12 1021.02 1020.92 1020.87
1027.47 1027.43 1027.42 1027.47 1027.53 1027.57 1027.58 1027.60 1027.60 1027.61 1027.56 1027.58 1027.59 1027.55 1027.47 1027.34 1027.24 1027.05 1026.89 1026.65 1026.39 1026.22 1026.02 1025.84 1025.61 1025.23 1024.75 1024.45 1024.27 1023.86 1023.36 1023.05 1022.78 1022.63 1022.27 1022.06 1021.99 1022.05 1022.00 1021.96 1021.92 1021.86 1021.84
Wind_Speed
6 5 5 5 6 5 5 6 6 5 5 6 6 6 5 5 5 5 6 6 8 7 6 6 6 6 5 5 5 5 5 4 4 1 4 6 7 10 9 9 8 9 10
5 5 6 6 6 6 6 6 5 6 5 5 6 5 4 4 4 5 6 5 6 7 7 7 8 6 7 6 5 7 6 6 4 7 2 4 7 7 7 8 8 8 9
5 6 6 6 5 6 6 6 5 5 5 5 4 4 4 4 5 4 4 4 4 4 6 7 8 8 8 8 7 8 6 6 5 4 2 3 4 3 5 8 7 8 7
6 6 6 6 6 6 6 6 5 5 5 5 4 4 3 4 5 5 6 5 5 4 6 7 8 8 9 10 8 8 7 7 4 5 4 4 3 1 4 5 6 6 6
7 6 6 6 5 5 5 5 5 4 4 4 4 4 5 4 5 7 6 5 3 5 5 7 8 11 14 12 6 6 7 5 3 5 4 4 3 2 2 3 4 4 7
6 6 6 5 5 5 5 5 5 5 5 4 5 5 6 5 12 13 9 4 2 4 6 7 8 10 12 14 11 10 6 4 4 3 4 5 4 4 3 2 1 1 3
6 6 6 5 4 4 5 6 6 6 4 4 3 4 5 6 13 14 12 3 3 3 5 7 8 8 10 10 11 8 4 3 2 2 5 4 5 2 3 2 4 5 4
6 5 5 5 5 5 6 6 5 4 5 4 5 6 5 5 13 14 13 3 2 3 4 7 8 9 9 11 8 5 3 3 2 0 6 5 6 6 3 3 4 6 4
6 7 7 4 4 6 6 6 5 4 4 5 6 6 6 7 12 13 10 5 3 4 6 7 8 9 12 12 5 5 8 9 16 21 18 16 13 8 6 6 3 2 3
8 7 5 4 5 5 5 5 4 3 5 5 5 6 8 8 11 13 9 3 4 5 6 7 10 11 12 9 6 6 9 7 8 10 7 10 10 10 12 5 1 2 2
7 6 5 5 4 4 4 3 4 5 5 5 6 4 5 6 8 12 9 5 4 4 5 6 6 13 10 12 12 8 7 6 11 9 8 7 7 7 7 6 5 2 2
5 4 4 4 5 4 4 5 6 7 7 7 7 5 5 6 9 10 9 8 8 5 5 4 4 10 13 12 10 12 11 9 7 8 8 7 7 7 6 6 8 9 8
5 5 4 4 3 3 5 6 5 7 6 6 5 5 5 5 5 10 7 9 9 4 4 7 10 10 11 12 15 14 9 7 7 8 7 7 6 5 7 6 6 10 11
5 5 4 4 5 4 4 4 5 5 6 6 5 5 5 5 6 5 5 5 7 6 7 6 8 9 12 9 9 10 8 7 7 7 6 6 6 6 6 4 5 4 5
4 4 4 3 4 5 4 3 4 2 3 3 4 4 4 5 4 5 5 5 4 5 5 6 7 7 7 7 8 8 7 7 7 7 6 6 6 5 5 4 3 4 6
5 5 4 4 4 4 4 4 5 3 7 8 7 4 3 5 7 8 8 9 10 10 6 6 7 7 7 6 6 6 7 8 6 6 7 6 6 5 5 4 4 4 5
6 6 4 5 4 4 4 5 4 5 8 9 11 8 7 5 7 8 9 9 11 7 7 6 6 7 6 6 6 6 7 6 5 6 7 5 4 5 5 5 4 4 4
4 6 3 4 4 4 5 5 4 5 5 6 9 8 9 10 10 11 10 6 7 8 5 6 6 6 6 6 6 6 5 5 5 6 6 6 5 5 5 5 5 4 4
5 4 4 4 5 5 5 5 5 6 6 5 5 7 8 11 12 12 10 7 6 7 6 7 6 6 6 6 5 6 7 6 5 5 5 4 4 5 5 4 4 5 2
6 10 7 5 5 5 5 5 6 6 6 6 6 6 5 5 7 7 7 6 6 6 6 7 6 5 5 5 6 6 6 6 4 4 3 3 3 3 4 3 2 2 1
5 6 8 6 6 5 5 6 5 6 6 7 6 5 6 6 6 6 6 6 6 6 6 6 6 6 6 5 5 5 4 3 3 3 3 4 4 4 3 3 2 2 3
5 6 7 6 5 6 6 6 6 7 6 6 5 6 8 6 6 6 6 6 6 7 6 6 7 6 5 5 4 3 3 3 3 4 4 5 5 5 4 4 3 3 3
5 5 4 4 4 6 7 7 6 6 6 6 5 6 6 7 7 8 7 7 6 7 7 7 7 6 5 4 3 3 4 4 4 4 5 5 5 5 5 5 5 5 6
4 4 4 4 7 7 6 6 6 7 7 6 7 7 8 8 8 9 8 8 7 7 8 8 7 9 7 6 5 5 4 3 3 3 5 4 5 5 6 6 7 7 7
4 4 6 6 5 5 6 6 6 7 7 7 7 8 7 7 8 9 8 7 8 8 9 8 8 10 11 11 11 11 8 6 7 4 5 7 9 10 8 7 7 7 9
5 5 5 5 5 5 5 6 7 7 7 7 7 7 8 8 8 8 8 9 8 9 10 8 10 14 14 11 11 9 9 10 9 8 6 7 8 7 7 9 10 8 8
Wind_Direction
325 312 311 307 303 298 290 288 285 295 297 294 291 295 301 314 326 335 351 359 360 351 347 349 356 346 340 333 324 326 326 332 311 272 47 76 53 65 62 58 52 57 62
311 308 299 298 307 303 298 294 299 296 300 293 291 285 298 311 335 349 353 354 2 357 344 353 355 346 343 331 334 343 331 326 302 78 60 66 78 68 72 70 57 54 54
307 310 312 311 316 316 307 308 309 312 303 305 288 291 317 331 336 334 324 333 341 333 337 349 348 346 343 341 340 343 335 329 317 127 104 102 89 82 78 59 48 42 44
311 324 316 314 315 309 311 323 322 311 305 310 319 336 349 330 330 334 322 319 334 349 5 0 351 339 332 339 337 346 339 337 333 107 102 95 81 64 70 75 61 40 42
319 313 308 317 319 326 336 328 319 323 318 330 8 16 3 344 343 331 314 303 326 357 6 3 348 348 341 339 327 335 329 340 340 116 113 120 117 73 73 74 92 91 58
310 303 308 322 329 335 335 330 339 344 358 12 17 11 2 353 340 344 334 281 5 23 357 359 340 348 339 338 336 330 327 336 335 130 138 146 115 105 113 105 126 62 80
312 314 323 326 338 333 339 352 356 348 341 351 347 350 352 354 352 354 360 356 60 34 359 353 348 343 343 336 326 321 326 332 295 301 153 127 120 124 109 88 31 75 81
324 325 329 334 326 349 9 360 348 355 356 338 351 359 351 356 357 359 351 346 68 15 355 354 341 337 340 331 319 331 27 40 2 103 90 91 94 92 93 94 107 97 87
337 335 329 332 350 9 2 354 3 358 359 358 1 1 2 348 353 356 355 348 58 358 7 353 350 338 331 327 329 67 76 74 73 76 76 76 75 92 124 124 129 112 86
327 320 327 356 25 18 359 359 345 343 348 354 357 4 358 351 354 351 358 14 29 5 0 346 341 343 339 351 45 72 71 53 71 66 53 53 54 51 49 48 84 90 115
320 330 11 43 46 21 7 3 355 355 1 344 350 335 345 355 354 355 7 38 25 12 359 351 345 353 17 49 61 65 68 78 68 72 69 60 53 50 47 42 33 48 89
333 9 40 45 37 15 4 6 4 360 0 351 348 352 350 1 12 12 29 41 19 18 358 335 343 18 45 53 64 63 61 69 69 67 62 53 50 48 45 51 53 62 53
10 36 46 39 21 12 5 3 9 2 354 343 348 353 355 9 10 13 29 23 14 12 350 13 33 36 48 56 54 51 50 58 65 67 63 58 51 51 58 53 63 68 62
38 38 23 12 352 358 2 1 4 360 347 352 5 10 16 13 16 3 9 6 8 9 10 30 44 53 55 51 53 46 51 54 64 69 68 59 55 53 53 32 54 41 59
26 27 17 7 3 355 1 0 353 340 353 342 358 7 11 22 8 9 24 19 7 10 36 47 47 43 46 46 48 49 50 53 60 65 65 67 62 57 49 31 31 41 62
24 17 7 1 0 5 5 2 30 351 0 24 36 32 46 45 28 33 36 32 30 19 53 47 45 45 48 49 51 54 50 55 54 64 66 65 64 58 59 58 56 56 66
21 18 6 13 8 4 5 18 14 348 357 20 45 47 38 47 47 36 28 39 34 35 48 42 44 43 47 48 48 50 57 51 51 62 75 78 80 66 57 51 53 59 60
8 5 353 354 7 18 25 22 14 19 25 31 41 57 45 48 47 41 23 32 40 34 37 40 44 48 49 50 48 52 57 48 44 58 66 63 61 67 60 51 45 53 50
2 9 8 26 37 35 28 25 23 34 40 42 28 29 23 34 41 33 17 43 36 38 38 47 44 48 53 55 51 59 63 64 72 76 66 60 48 44 48 41 44 44 44
17 21 37 40 37 36 32 33 31 40 46 45 40 22 6 30 36 32 34 38 43 45 44 53 53 54 51 56 63 69 71 66 65 66 58 41 26 20 21 6 6 357 360
24 31 28 43 42 39 39 41 36 40 45 50 42 24 10 49 41 34 36 30 27 33 39 51 59 65 69 76 82 83 84 81 56 35 19 1 356 353 334 308 296 281 276
20 32 44 46 45 46 42 41 47 52 46 46 29 26 14 45 39 37 32 28 21 35 35 50 60 60 61 67 69 70 59 43 20 6 358 350 347 352 353 1 22 38 36
23 24 42 32 28 35 56 62 58 50 50 49 34 35 32 40 40 40 36 32 27 33 31 37 41 40 30 26 15 358 349 351 349 343 337 349 6 21 27 34 36 47 49
17 23 14 16 39 67 69 61 57 45 40 42 45 44 41 36 38 37 35 34 34 35 36 36 35 34 21 21 13 3 341 325 330 341 356 21 37 35 46 53 58 69 75
15 26 36 51 66 48 50 45 49 53 49 44 43 45 41 41 40 37 29 32 38 40 35 32 28 26 32 34 34 34 22 25 43 34 58 58 57 50 48 51 52 59 64
43 48 52 54 56 53 52 54 52 50 49 48 47 44 44 44 41 40 36 37 40 39 35 31 26 28 30 30 25 20 28 32 42 34 58 58 57 54 59 61 60 61 63